Tracking 29892 objects as of 21-Nov-2024
HD Live streaming from Space Station
objects crossing your sky now

COSMOS 970 DEB

Track COSMOS 970 DEB now!
10-day predictions


NORAD ID: 10535
Int'l Code: 1977-121C
Perigee: 895.6 km
Apogee: 1,077.8 km
Inclination: 65.8 °
Period: 104.7 minutes
Semi major axis: 7357 km
RCS: 0.042 m2 (small)
Launch date: December 21, 1977
Source: Commonwealth of Independent States (former USSR) (CIS)
Launch site: TYURATAM MISSILE AND SPACE COMPLEX (TTMTR)

Note: This is SATELLITE DEBRIS
Your satellite tracking list
Your tracking list is empty




NASA's NSSDC Master Catalog

Two Line Element Set (TLE):
1 10535U 77121C   24325.61224723  .00000655  00000-0  72103-3 0  9997
2 10535  65.8497 178.8324 0123775 338.7606  51.5030 13.75591772344110
Source of the keplerian elements: AFSPC